{"data":{"norad_id":62632,"epoch":"2026-05-25T03:45:11.542176Z","epoch_age_seconds":58571,"freshness":"FRESH","line1":"1 62632U 25009Z   26145.15638359  .00005066  00000+0  21000-3 0  9995","line2":"2 62632  97.4004 225.6297 0004217  54.5288 305.6342 15.24331818 75296","mean_motion":15.24331818,"eccentricity":0.0004217,"inclination_deg":97.4004,"raan_deg":225.6297,"arg_perigee_deg":54.5288,"mean_anomaly_deg":305.6342,"bstar":0.00021,"rev_number":7529,"period_min":94.46762069753,"perigee_km":489.89511763731,"apogee_km":495.69005965238,"semimajor_km":6870.9295886448,"source":"CELESTRAK","updated_at":"2026-05-25T13:38:03.132880Z"}}